STARLINK-32582, 62033

Orbit data source: Space-Track

STARLINK-32582, 62033 is a payload satellite owned by SpaceX/Seattle (US) in LEO that was launched on Thu, 21 Nov 2024 UTC via an FALCON 9 launch vehicle from the Air Force Eastern Test Range (AFETR). Payload-class satellites include a variety of spacecraft equipped with specific instruments for various scientific and technological missions. These include communications satellites like Starlink; space stations such as the ISS; scientific satellites like the Hubble; Earth observation satellites from companies like Planet Labs, Umbra, and HawkEye 360; GPS; miniature CubeSats for education and research; and military/defense satellites.

Loading next visibility...
Identifier
62033, 2024-216B
Orbit
LEO
Last TLE update
9 hours ago
Origin
Manufacturer
SpaceX/Seattle
Mission
Operational Commercial Communications
Bus & Motor
STARLINK V2M, Unknown motor
Mass
730 kg wet, ~700 kg dry
Launch date (UTC)
2024-11-21 (7 months ago)
Launch vehicle
FALCON 9
Launch site
Air Force Eastern Test Range (AFETR)
Object type
Payload
Rocket body
Debris
Shape & HBR
Box + 2 Pan, 29 m
Radar Cross Section
36.964 m², Large (>1 m²)

Expand to show TLE details & history

TLE from 9 hours ago
0 STARLINK-32582
1 62033U 24216B   25183.84155901  .00015446  00000-0  56911-3 0  9996
2 62033  42.9970 234.3379 0002146 274.0215  86.0392 15.27610115 35580
Epoch: 2025-07-02T20:11Z
TLE epoch observation values (Epoch: 2025-07-02T20:11:50.698Z)
Latitude
0.00003°
Longitude
10.25982°
Altitude
482.633 km
Speed
7.626 km/s
True Right ascension
15h 37m 21s
True Declination
0° 00' 00"
Sunlit
Object was in full shadow at epoch
Visualization orbit readout
Latitude
-6.83787°
Longitude
0.70536°
Altitude
483.421 km
Speed
7.625 km/s
Apparent Right ascension
11h 58m 37s
Apparent Declination
-50° 49' 33"
Sunlit
Object is in full shadow
Visualization observer readout
Local Sidereal Time
17:19:41
Azimuth
223.194° SW
Elevation
-24.552°
Doppler factor
1
Orbital elements
Apogee altitude
486.377 km
Perigee altitude
483.432 km
Semi-major axis
6,863.042 km
Eccentricity
0.00021
Inclination
42.997°
RAAN
234.3379°
Arg. of periapsis
274.0215°
True anomaly
Unknown
Mean anomaly
86.0392°
Eccentric anomaly
Unknown
Mean motion
3.8174 °/min
Orbital period
94.3 mins
BSTAR
0.00056911
Loading maneuver chart data...
Loading SW <> Apogee altitude chart data...
Loading historical data...
Loading historical data...
Loading historical data...
Loading historical data...
Loading historical data...
Loading historical data...
Loading historical data...

STARLINK-32582 Visibility forecast

Observer location: undefined°, undefined°

Span
Click to sort rows by Start time (UTC) header in descending order
Start Az.
Max El. time (UTC)
Max El. Az.
Max El.
End time (UTC)
End Az.
5 mins2025-07-03 07:26:09.243Z231.597° WSW2025-07-03 07:28:09.243Z133.503° SE42.038°2025-07-03 07:31:09.243Z75.862° E
5 mins2025-07-03 09:05:09.243Z287.074° WNW2025-07-03 09:07:09.243Z6.529° NNE38.822°2025-07-03 09:10:09.243Z71.061° E
5 mins2025-07-03 10:44:09.243Z295.502° NW2025-07-03 10:46:09.243Z7.686° NNE42.352°2025-07-03 10:49:09.243Z93.397° ESE
5 mins2025-07-03 12:23:09.243Z264.617° W2025-07-03 12:25:09.243Z204.453° SW32.246°2025-07-03 12:28:09.243Z141.619° SSE
|